Location: Holcomb Observatory and Planetarium
(39.8415°N, 86.1714°W)
Time: 19:44:05
(UTC-05:00)

ISS - Visible Passes

Search period start: 16 January 2017 00:00
Search period end: 26 January 2017 00:00
Orbit: 400 x 410 km, 51.6° (Epoch: 17 January)

Date Brightness Start Highest point End Pass type
(mag) Time Alt. Az. Time Alt. Az. Time Alt. Az.
16 Jan -3.1 06:55:55 20° NW 06:58:00 62° NE 07:01:13 10° ESE visible
17 Jan -2.0 06:05:59 34° NE 06:05:59 34° NE 06:08:47 10° E visible
18 Jan -3.0 06:48:48 29° WNW 06:50:06 50° SW 06:53:15 10° SE visible
19 Jan -2.0 05:59:00 39° ESE 05:59:00 39° ESE 06:01:11 10° SE visible
19 Jan -0.9 07:33:45 10° SW 07:33:58 10° SW 07:34:10 10° SW visible
20 Jan -1.7 06:41:57 20° SW 06:41:59 20° SW 06:44:25 10° S visible
21 Jan -0.7 05:52:18 15° SSE 05:52:18 15° SSE 05:52:58 10° SSE visible
